AirNav   Phillips 66 Aviation Fuel
 
 921 users online  

I83 Salem Municipal Airport
Salem, Indiana, USA

GOING TO SALEM?


FAA INFORMATION EFFECTIVE 08 NOVEMBER 2018

Location

FAA Identifier: I83
Lat/Long: 38-36-07.2060N / 086-08-23.9240W
38-36.120100N / 086-08.398733W
38.6020017 / -86.1399789
(estimated)
Elevation: 822 ft. / 251 m (estimated)
Variation: 02W (1985)
From city: 2 miles W of SALEM, IN
Time zone: UTC -5 (UTC -4 during Daylight Saving Time)
Zip code: 47167

Airport Operations

Airport use: Open to the public
Control tower: no
ARTCC: INDIANAPOLIS CENTER
FSS: TERRE HAUTE FLIGHT SERVICE STATION
NOTAMs facility: HUF (NOTAM-D service available)
Attendance: IREG
Wind indicator: lighted
Segmented circle: no
Lights: MIRL RY 10/28 PRESET LOW INTST; TO INCR INTST ACTVT - CTAF.
Beacon: white-green (lighted land airport)
Operates sunset to sunrise.

Airport Communications

CTAF/UNICOM: 123.0
  • UNICOM NOT RGRLY MNTRD.

Nearby radio navigation aids

VOR radial/distance  VOR name  Freq  Var
BQMr319/31.6BOWMAN VOR/DME112.2004W
OOMr148/39.3HOOSIER VORTAC110.2002W
IIUr317/39.9LOUISVILLE VORTAC114.8001E

 
NDB name  Hdg/Dist  Freq  Var  ID
GODMAN352/39.439603WGOI --. --- ..

Airport Services

Fuel available: 100LL
FUEL AVBL 24 HRS WITH CREDIT CARD.
Parking: hangars and tiedowns
Airframe service: NONE
Powerplant service: NONE

Runway Information

Runway 10/28

Dimensions: 2738 x 50 ft. / 835 x 15 m
Surface: asphalt, in good condition
Weight bearing capacity: 
Single wheel: 7.0
Runway edge lights: medium intensity
Gradient: W
RUNWAY 10  RUNWAY 28
Latitude: 38-36.150167N38-36.081667N
Longitude: 086-08.722167W086-08.154000W
Elevation: 821.0 ft.810.0 ft.
Gradient: 0.5%0.4% UP
Traffic pattern: leftleft
Displaced threshold: no238 ft.
Markings: basic, in good conditionbasic, in good condition
Visual slope indicator: 2-light PAPI on left (4.00 degrees glide path)
Runway end identifier lights: yes
REIL OTS INDEFLY.
yes
Obstructions: 61 ft. trees, 1398 ft. from runway, 53 ft. right of centerline, 19:1 slope to clear27 ft. bldg, 257 ft. from runway, 129 ft. left of centerline, 2:1 slope to clear
APCH RATIO 19:1 TO DSPLCD THLD.

Airport Ownership and Management from official FAA records

Ownership: Publicly-owned
Owner: SALEM BOARD OF AVN CMSNRS
2593 W. STATE ROAD 56
SALEM, IN 47167
Phone 812-472-3749
Manager: LOWELL DEPOY
2593 W STATE ROAD 56
SALEM, IN 47167
Phone 812-472-3749
MGR CELL: 812-896-4775

Airport Operational Statistics

Aircraft based on the field: 34
Single engine airplanes: 33
Ultralights: 1
    
Aircraft operations: avg 105/week *
73% local general aviation
27% transient general aviation
* for 12-month period ending 31 December 2015

Instrument Procedures

There are no published instrument procedures at I83.

Some nearby airports with instrument procedures:

KBFR - Virgil I Grissom Municipal Airport (20 nm NW)
KSER - Freeman Municipal Airport (22 nm NE)
KJVY - Clark Regional Airport (24 nm SE)
KFRH - French Lick Municipal Airport (24 nm W)
KLOU - Bowman Field Airport (32 nm SE)
 
Loc | Ops | Rwys | IFR | FBO | Links
Com | Nav | Svcs | Stats | Notes


 
Area around I83 (Salem Municipal Airport)
 
Road maps at: MapQuest Bing Google
 
Aerial photo
WARNING: Photo may not be current or correct
Aerial photo of I83 (Salem Municipal Airport)
Do you have a better or more recent aerial photo of Salem Municipal Airport that you would like to share? If so, please send us your photo.

 
Sectional chart

 
Airport distance calculator
Flying to Salem Municipal Airport? Find the distance to fly.

From to I83

Sunrise and sunset
Times for 14-Nov-2018
 Local
(UTC-5)
 Zulu
(UTC)
Morning civil twilight06:5811:58
Sunrise07:2712:27
Sunset17:3222:32
Evening civil twilight18:0023:00

Current date and time
Zulu (UTC)  15-Nov-2018 03:07:13
Local (UTC-5)  14-Nov-2018 22:07:13
 
METAR
KFRH 
24nm W 
150255Z AUTO 05011G17KT 7SM BKN050 OVC065 M01/M06 A3025 RMK AO1
KSDF 
32nm SE 
150303Z 03011KT 3SM FZRA FEW020 SCT045 OVC060 00/M03 A3025 RMK AO2 P0002 I1001 T00001028
KLOU 
32nm SE 
150253Z AUTO 02009KT 3SM FZRA BKN037 OVC045 01/M03 A3027 RMK AO2 RAE43FZRAB43 SLP253 P0013 60016 I1002 I3002 T00061033 56013
KIMS 
33nm E 
150255Z AUTO 03008G14KT 10SM SCT055 OVC065 00/M03 A3030 RMK AO1
KBMG 
40nm NW 
150258Z AUTO 05008KT 4SM UP BR SCT018 OVC075 M02/M04 A3029 RMK AO2 UPB56SNE56 P0000 T10221039 $
KBAK 
41nm N 
150245Z 05010KT 7SM PL SCT048 OVC070 M01/M08 A3035 RMK LAST
KHNB 
44nm SW 
150256Z AUTO 06014G18KT 5SM -SN BR SCT042 OVC055 M01/M02 A3023 RMK AO2 PRESFR SLP243 P0012 60018 T10061022 56036 FZRANO
KFTK 
44nm S 
150257Z 00000KT 4SM +FZRAPL BR OVC010 M01/M02 A3023 RMK AO2A PRESFR SLP248 P0023 60035 T10071016 57016 $
KDCY 
47nm W 
150255Z AUTO 06010G15KT 10SM UP OVC060 M01/M05 A3028 RMK AO2 P0001 60002 T10101047
TAF
KSDF 
32nm SE 
150044Z 1501/1606 06013KT P6SM -FZRA SCT015 OVC060 TEMPO 1501/1503 4SM -FZRA BKN025 FM150300 05010KT 2SM FZRA BR SCT007 OVC011 FM150700 07009KT 2SM RA BR OVC007 FM151400 15007KT P6SM OVC008 FM151900 22006KT P6SM OVC011 FM160000 25007KT P6SM OVC015
NOTAMs
Click for the latest NOTAMs
NOTAMs are issued by the DoD/FAA and will open in a separate window not controlled by AirNav.

 

 
 

FBO, Fuel Providers, and Aircraft Ground Support

  
 Business Name 
 
 Contact 
 
 Services / Description 
 
Fuel Prices
 
Comments
  
Salem Municipal Airport 812-883-4265
812-883-4264
[web site]
[email]
Aviation fuel, Hangar leasing / sales, Public telephone, Internet access, Restrooms

More info about Salem Municipal Airport
independent
100LL
SS $4.66 
 Updated 29-Oct-2018
 
   write
SS=Self service
Update Fuel Prices
 

Would you like to see your business listed on this page?

 If your business provides an interesting product or service to pilots, flight crews, aircraft, or users of the Salem Municipal Airport, you should consider listing it here.  To start the listing process, click on the button below
 
Add a business
 

Other Pages about Salem Municipal Airport

Update a link
 
Copyright © AirNav, LLC. All rights reserved. Privacy Policy  Contact